Location: Bittelbronn
(48.4454°N, 8.5870°E)
Time: 18:19:15
(UTC+00:00)

CZ-2C R/B - Pass Details

Date: 23 May 2024
Orbit: 703 x 904 km, 98.2° (Epoch: 16 June)

Event Time Altitude Azimuth Distance (km) Brightness Sun altitude
Rises 01:35:18 0° 15° (NNE) 3,539 7.9 -14.8°
Reaches altitude 10° 01:37:45 10° 17° (NNE) 2,597 7.0 -14.6°
Maximum altitude 01:43:35 72° 102° (ESE) 948 3.5 -14.1°
Enters shadow 01:48:27 15° 186° (S) 2,228 4.9 -13.6°
